Current Version              Previous Version:    01  02  03  04  05  06  07  08  09  10  11  12  13  14  15  16  17  18  19  20  21  22  23  24  25  26  27  28  29  30  
   31  32  33  34  35  36  37  38  39  40  41  42  43  44  45  46  47  48  49  50  51  52  53  54  55  56  57  58  59  60  

[Printable]
677
ASUS44 KFWD 280110
RWRTX
NORTH TEXAS HOURLY WEATHER ROUNDUP
NATIONAL WEATHER SERVICE FORT WORTH TX
700 PM CST THU NOV 27 2014

NOTE: "FAIR" INDICATES FEW OR NO CLOUDS BELOW 12,000 FEET WITH NO
SIGNIFICANT WEATHER AND/OR OBSTRUCTIONS TO VISIBILITY.

TXZ118-119-280200-
DALLAS/FORT WORTH METROPLEX

CITY           SKY/WX    TMP DP  RH WIND       PRES   REMARKS
DFW AIRPORT    PTCLDY    49  23  36 SE6       30.38F
DALLAS LOVE    CLEAR     51  27  39 CALM      30.39F
FTW MEACHAM    CLEAR     52  24  33 E7        30.38F
DAL-EXECUTIVE  CLEAR     50  24  36 S3        30.39F
FTW-ALLIANCE   CLEAR     45  25  45 CALM      30.38F
FTW-SPINKS     CLEAR     46  27  46 SE9       30.40F
ARLINGTON      CLEAR     47  25  42 SE5       30.39F
ADDISON        CLEAR     52  21  30 CALM      30.40
MESQUITE       CLEAR     48  21  34 CALM      30.40F
LANCASTER      CLEAR     47  22  38 CALM      30.41F
$$

TXZ091>094-102>105-117-120-121-131>134-280200-
NORTH CENTRAL TEXAS

CITY           SKY/WX    TMP DP  RH WIND       PRES   REMARKS
SHRMAN/DENISON CLEAR     49  26  41 SE5       30.39F
BOWIE          CLEAR     45  26  46 SE6       30.36F
BRIDGEPORT     CLEAR     46  28  48 SE6       30.39F
DECATUR        CLEAR     47  23  37 SE6       30.38F
DENTON         CLEAR     48  22  35 CALM      30.39F
MCKINNEY       CLEAR     47  23  38 CALM      30.39F
GREENVILLE     CLEAR     43  28  56 CALM      30.40F
ROCKWALL       CLEAR     51  23  34 SE6       30.39F
TERRELL        CLEAR     50  27  40 CALM      30.41S
WAXAHACHIE     CLEAR     48  28  44 CALM      30.41F
CLEBURNE       CLEAR     50  25  37 SE8       30.40F
GRANBURY       CLEAR     52  28  39 SE5       30.39F
$$

TXZ083>090-098>101-113>116-127>130-139>142-154-155-280200-
WESTERN NORTH TEXAS

CITY           SKY/WX    TMP DP  RH WIND       PRES   REMARKS
WICHITA FALLS  CLEAR     44  28  53 SE9       30.34F WCI  39
WF-KICKAPOO    CLEAR     45  29  54 SE7       30.35F
VERNON         CLEAR     45  28  53 S7        30.33F
ABILENE        CLEAR     49  33  54 SE8       30.35F
ABILENE-DYESS  CLEAR     41  31  66 S6        30.33F WCI  37
BRECKENRIDGE   CLEAR     51  28  40 SE8       30.35F
GRAHAM         CLEAR     48  29  48 SE5       30.35S
MINERAL WELLS  CLEAR     50  28  42 SE8       30.36F
STEPHENVILLE   CLEAR     49  26  40 S3        30.40F
COMANCHE       CLEAR     49  32  51 S5        30.38S
BROWNWOOD      PTCLDY    48  34  57 MISG      30.37F
COLEMAN        CLEAR     49  37  64 SE5       30.37S
BRADY          CLEAR     50  30  46 SE6       30.36F
$$

TXZ143>147-156>162-174-175-280200-
CENTRAL TEXAS

CITY           SKY/WX    TMP DP  RH WIND       PRES   REMARKS
WACO           CLEAR     43  35  73 CALM      30.41S
WACO-TSTC      CLEAR     46  32  57 CALM      30.41S
WACO-MCGREGOR  CLEAR     50  25  37 CALM      30.42S
HILLSBORO      CLEAR     49  25  38 CALM      30.40F
CORSICANA      CLEAR     51  26  37 CALM      30.42S
MEXIA          CLEAR     52  28  39 CALM      30.41R
HEARNE         PTCLDY    47  36  64 CALM      30.42R
CAMERON        PTCLDY    50  33  51 CALM      30.40F
TEMPLE         PTCLDY    50  27  40 CALM      30.40S
KILLEEN        CLEAR     49  31  50 S5        30.39F
KILLEEN-SKYLRK PTCLDY    48  28  46 SE3       30.39S
FORT HOOD      PTCLDY    53  30  41 CALM      30.40S
GATESVILLE     PTCLDY    50  30  46 CALM      30.42S
HAMILTON       CLEAR     49  28  42 SE10      30.39F
LAMPASAS       CLEAR     50  32  50 CALM      30.39S
$$

TXZ095>097-106>112-122>126-135>138-148>153-164>167-280200-
EAST TEXAS

CITY           SKY/WX    TMP DP  RH WIND       PRES   REMARKS
PARIS          CLEAR     45  21  39 E7        30.42S
SULPHUR SPRNGS CLEAR     49  20  31 SE5       30.43S
MOUNT PLEASANT CLEAR     47  28  48 E3        30.43F
MINEOLA        CLEAR     45  28  53 CALM      30.42S
TYLER          CLEAR     49  27  42 E5        30.41S
LONGVIEW       CLEAR     44  33  65 CALM      30.42F
MARSHALL       CLEAR     43  38  82 CALM      30.46S
ATHENS         CLEAR     45  28  53 CALM      30.40F
PALESTINE      CLEAR     47  37  67 CALM      30.42S
JACKSONVILLE   CLEAR     53  23  31 E3        30.43S
HENDERSON      CLEAR     44  34  67 CALM      30.43F
NACOGDOCHES    CLEAR     43  34  70 E5        30.43S
LUFKIN         CLEAR     47  38  71 E3        30.43R
$$

SUPPLEMENTAL OBSERVATIONS (CENTRAL)

CITY           SKY/WX    TMP DP  RH WIND       PRES   REMARKS
CADDO GRASSLND   N/A     43  28  56 S1          N/A
PAT MAYSE LAKE   N/A     48  21  34 E6          N/A
GREENVILLE       N/A     48  18  29 SE2         N/A
CEDAR HILL       N/A     48  27  43 SE5         N/A
PALESTINE        N/A     45  36  70 CALM        N/A
MCGREGOR         N/A     50  28  43 SE1         N/A
TEMPLE           N/A     54  30  40 NE3         N/A
$$

SUPPLEMENTAL OBSERVATIONS (WEST)

CITY           SKY/WX    TMP DP  RH WIND       PRES   REMARKS
MILLERS CREEK    N/A     46  27  46 SE5         N/A
POSSUM KINGDOM   N/A     50  27  40 SE5         N/A
LBJ GRASSLAND    N/A     46  23  39 SE6         N/A
GRANBURY         N/A     52  27  37 SE6         N/A
HAMBY            N/A     50  32  50 S6          N/A
IVIE RESERVOIR   N/A     52  32  46 SE6         N/A
COLORADO BEND    N/A     48  28  46 SE5         N/A
$$

SUPPLEMENTAL OBSERVATIONS (EAST)

CITY           SKY/WX    TMP DP  RH WIND       PRES   REMARKS
CLARKSVILLE      N/A     43  27  52 E1          N/A
TEXARKANA        N/A     37  32  81 CALM        N/A
LINDEN           N/A     41  34  75 CALM        N/A
GILMER           N/A     43  32  65 CALM        N/A
HENDERSON        N/A     46  28  49 E5          N/A
N SABINE NF      N/A     39  34  81 MISG        N/A
S SABINE NF      N/A     43  37  81 NW1         N/A
$$

SUPPLEMENTAL OBSERVATIONS ARE A COLLECTION OF AUTOMATED INSTRUMENTS
THAT ARE MAINTAINED BY A VARIETY OF FEDERAL AND STATE AGENCIES.
CERTAIN ELEMENTS...SUCH AS HUMIDITY VALUES AND SUSTAINED WIND
SPEEDS...MAY BE APPROXIMATED.